Regional Weather Roundup
Issued by NWS

Home | Current Version | Previous Version | Graphics & Text | Print | Product List | Glossary On
Versions: 1 2 3 4 5 6 7 8 9 10 11 12 13 14 15 16 17 18 19 20 21 22 23 24 25 26 27 28 29 30 31 32 33 34 35 36 37 38 39 40 41 42 43 44 45 46 47 48 49 50
000
ASUS45 KTFX 270619
RWRMT
MONTANA HOURLY WEATHER ROUNDUP
NATIONAL WEATHER SERVICE GREAT FALLS MT
1119 PM MST WED NOV 26 2014

NOTE: "FAIR" INDICATES FEW OR NO CLOUDS BELOW 12000 FEET WITH NO
SIGNIFICANT WEATHER AND/OR OBSTRUCTIONS TO VISIBILITY.

* THESE STATIONS ARE NOT UNDER NWS QUALITY CONTROL. THEY DO NOT
   REPORT WEATHER SUCH AS PRECIPITATION OR FOG.

MTZ001>007-043-270700-
WEST OF THE DIVIDE
CITY           SKY/WX    TMP DP  RH WIND       PRES   REMARKS
KALISPELL      FOG       32  30  92 SW3       30.02F
MISSOULA       FOG       30  30 100 W3        30.11S VSB 3
BUTTE          CLOUDY    45  27  49 SW7       30.10F
MULLAN PASS    LGT RAIN  36  34  92 VRB7G21   30.03F WCI  30
* EUREKA APT   CLOUDY    37  34  89 SE16      29.96S WCI  28
* HAMILTON APT CLOUDY    43  32  65 S16       30.07S
* LIBBY APT    CLOUDY   N/A N/A N/A CALM      30.00F VSB 2 1/2
* LINCOLN      N/A       35  33  92 S4         N/A
* LOOKOUT PASS N/A       40  37  89 E7G14      N/A   WCI  35
* POLSON       N/A       37  37 100 SE2        N/A
* RONAN APT    CLOUDY    34  32  92 N/A        N/A
* SEELEY LAKE  N/A       31  30  96 W1         N/A
* THOMP F APT  CLOUDY    35  32  89 E4G9       N/A
* YAAK HILL    N/A       33  31  92 NE1        N/A
$$

MTZ008-052>055-270700-
SOUTHWEST MONTANA
CITY           SKY/WX    TMP DP  RH WIND       PRES   REMARKS
BOZEMAN        CLOUDY    36  28  73 E3        30.08F
DILLON         MOCLDY    36  27  70 SW13      30.14R WCI  27
* W YELLOWSTON MOCLDY    35  31  85 SW4G10     N/A
* ENNIS APT    CLOUDY    39  30  70 SE17       N/A   WCI  30
* THREE FORKS  CLOUDY    27   7  42 N/A        N/A
* BOULDER HILL N/A       38  24  57 SW10       N/A   WCI  31
* MONIDA PASS  N/A       32  32 100 SE20       N/A   WCI  20
* RAYNOLDS PAS N/A       33  17  52 S12        N/A   WCI  24
* WHITEHALL    N/A       45  27  49 W12G26     N/A
* WISE RIVER   N/A       35  28  76 NW4        N/A
$$

MTZ009>010-012-014-046-048-049-054-270700-
EAST SLOPES AND CENTRAL MONTANA
CITY           SKY/WX    TMP DP  RH WIND       PRES   REMARKS
CUT BANK       FOG       27  27 100 SE12      29.95F VSB M1/4 WCI  16
GREAT FALLS    CLOUDY    28  28 100 S12       29.95F WCI  18
HELENA         FOG       25  23  92 CALM      30.07S VSB 3
MALMSTROM AFB  FOG       27  27 100 SE1       29.99F VSB 1/4
* CONRAD       MOCLDY    27  27 100 E8         N/A   WCI  19
* DEARBORN     N/A       41  34  76 S8         N/A
* EAST GLACIER N/A       39  34  82 W11G19     N/A   WCI  32
* MONARCH      N/A       39  26  60 S4         N/A
* PENDROY      N/A       27  26  96 SW6        N/A   WCI  20
* ROGERS PASS  N/A       37  32  82 SE15G24    N/A   WCI  28
* SAINT MARY   N/A       39  36  89 S9G19      N/A   WCI  33
* SWEET GRASS  N/A       25  25 100 S24G29     N/A   WCI  10
* WHITE SULPH  N/A       34  28  79 NW2G7      N/A
$$

MTZ011-013-016-021-035-040-045-047-050-051-270700-
NORTH CENTRAL MONTANA
CITY           SKY/WX    TMP DP  RH WIND       PRES   REMARKS
HAVRE          CLOUDY    28  27  96 E10       30.04F WCI  19
LEWISTOWN      CLOUDY    30  25  82 E10       30.00F WCI  21
* N BAR RANCH  CLOUDY    25  25 100 CALM      30.03F
* CHINOOK      CLOUDY    28  27  96 E15       30.08F WCI  16
* FORT BENTON  CLOUDY    30  27  89 E9        30.02F WCI  22
* MALTA APT    CLOUDY    27  21  78 E6         N/A   WCI  20
* CHESTER      N/A       27  25  92 SE9G17     N/A   WCI  18
* DENTON       N/A       25  24  96 SE1        N/A
* GEYSER       N/A       25  24  96 S2         N/A
* JUDITH GAP   N/A       25  25 100 S11        N/A   WCI  14
* LOMA         N/A       29  27  92 E15        N/A   WCI  18
$$

MTZ017>020-022>027-061-062-270700-
NORTHEAST MONTANA
CITY           SKY/WX    TMP DP  RH WIND       PRES   REMARKS
GLASGOW        CLOUDY    16  10  77 E16       30.21F WCI   1
GLENDIVE       MOCLDY    16  12  84 E3        30.26F
JORDAN         MOCLDY    25  23  92 SE8       30.19F WCI  16
SIDNEY         MOCLDY    10   5  80 CALM      30.33F
WOLF POINT     CLOUDY    16   9  74 E8        30.28F WCI   5
* BEAVER HILL  N/A       15  12  88 SE11       N/A   WCI   2
* CIRCLE       N/A       23  20  88 E2         N/A
* LINDSAY DVD  N/A       15  13  92 E7         N/A   WCI   5
* NAVAJO       N/A       10   7  88 S8         N/A   WCI  -2
* PLENTYWOOD A MOCLDY     7   1  76 N/A       30.28F
* POPLAR APT   CLOUDY    12   7  80 N/A       30.28F
* SACO         N/A       19  15  84 E13        N/A   WCI   6
* SCOBEY APT   MOCLDY    12   5  73 SE8        N/A
$$

MTZ028>042-056>058-270700-
SOUTHCENTRAL AND SOUTHEAST MONTANA
CITY           SKY/WX    TMP DP  RH WIND       PRES   REMARKS
BAKER          CLOUDY    21  18  88 SE10      30.25F WCI  10
BILLINGS       FOG       28  27  96 S6        30.09F VSB 1/2  WCI  21
LIVINGSTON     CLOUDY    43  30  60 SW25G35   30.04F
MILES CITY     CLOUDY    27  23  85 E3        30.22F
* BIG TIMBER A CLOUDY    27  25  92 CALM      30.06F VSB M1/4
* FORSYTH APT  CLOUDY    27  27 100 E7        30.17F WCI  19
* LAUREL APT   CLOUDY    27  21  78 N/A        N/A
* ALZADA       N/A       20  19  96 E9         N/A   WCI  10
* HYSHAM       N/A       28  25  89 E6         N/A   WCI  21
* REED POINT   N/A       27  26  96 N/A        N/A
* ROSCOE HILL  N/A       45  21  38 SW12G32    N/A
$$

REGIONAL REPORTS...DAKOTAS
CITY           SKY/WX    TMP DP  RH WIND       PRES   REMARKS
WILLISTON      PTCLDY     9   5  84 S5        30.34F
DICKINSON      CLOUDY    12  10  92 S14       30.29F WCI  -4
BEACH          CLOUDY    12  12 100 SE6       30.27F WCI   2
CROSBY         CLOUDY     0  -2  91 S5        30.35F WCI -11
TIOGA          CLOUDY     1   0  95 SE3       30.36F
BISMARCK       PTCLDY   -11 -17  74 E7        30.47S WCI -26
GRAND FORKS    CLEAR    -15 -18  86 W5        30.57R WCI -28
FARGO          PTCLDY    -9 -17  67 W7        30.57R WCI -24
BUFFALO SD     PTCLDY    19  14  81 SE10      30.19F WCI   8
RAPID CITY     CLOUDY    25  21  85 E8        30.26F WCI  16
$$

REGIONAL REPORTS...WYOMING/IDAHO/WASHINGTON
CITY           SKY/WX    TMP DP  RH WIND       PRES   REMARKS
GILLETTE       PTCLDY    25  19  78 S16       30.13S WCI  12
SHERIDAN       FOG       25  21  85 CALM      30.12S VSB 1/2
CODY           CLOUDY    21  21 100 E8        30.10F WCI  11
YELLOWSTONE LA CLOUDY    32  27  82 CALM      30.28S
SALMON         CLOUDY    32  30  92 CALM      30.18F VSB M1/4
MULLAN PASS    LGT RAIN  36  34  92 VRB7G21   30.03S WCI  30
SAND POINT     RAIN      36  36 100 CALM      30.00F VSB 1 3/4
SPOKANE        CLOUDY    43  41  93 SE8       29.98F
$$

REGIONAL REPORTS...ALBERTA
CITY           SKY/WX    TMP DP  RH WIND       PRES   REMARKS
CALGARY        LGT SNOW  27  25  92 SE8       29.93F VSB 1 1/2 WCI  19
LETHBRIDGE     CLOUDY    30  28  92 SE8       29.92F WCI  22
MEDICINE HAT   LGT SNOW  28  28 100 NE5       30.05F VSB 2 1/2 WCI  22
EDMONTON       CLOUDY    18  16  92 NE7       30.06S WCI   9
WATERTON GATE  N/A       27  25  92 E6         N/A   WCI  20
CARDSTON       N/A       27  27 100 SW3        N/A
MILK RIVER     N/A       27  27 100 S20        N/A   WCI  13
$$

REGIONAL REPORTS...SASKATCHEWAN
CITY           SKY/WX    TMP DP  RH WIND       PRES   REMARKS
SWIFT CURRENT  CLOUDY    21  19  92 S12       30.12R WCI   9
REGINA         LGT SNOW   3  -2  79 SE10      30.30F WCI -12
VAL MARIE      N/A       21  19  92 S10        N/A   WCI  10
ASSINIBOIA     N/A       10   9  96 SE7        N/A   WCI  -1
CORONACH       N/A       12  10  92 SE12       N/A   WCI  -2

$$




USA.gov is the U.S. government's official web portal to all federal, state and local government web resources and services.